#timestamp,LO_Frequency,Hit,StdDev 
1578740415.2,286047000.5,N
1578740435.1,286046999.8,N
1578740436.0,286046999.8,N
1578740455.8,286047000.1,N
1578740475.6,286046998.9,N
1578740495.5,286046997.7,N
1578740515.3,286046997.8,N
1578740535.2,286046997.7,N
1578740555.9,286046996.6,N
1578740575.7,286046998.6,N
1578740595.6,286047000.9,N
1578740615.4,286047000.7,N
1578740635.2,286047000.9,N
1578740655.1,286046999.7,N
1578740656.0,286046999.7,N
1578740675.8,286047002.4,N
1578740695.7,286047002.8,N
1578740715.5,286046999.7,N
1578740735.3,286047000.3,N
1578740755.2,286046999.0,N
1578740775.0,286047000.4,N
1578740775.9,286047000.4,N
1578740795.7,286047000.8,N
1578740815.6,286047002.8,N
1578740835.4,286046998.5,N
1578740855.3,286047002.3,N
1578740875.1,286046999.9,N
1578740895.8,286047000.2,N
1578740915.7,286047001.9,N
1578740935.5,286047001.7,N
1578740955.4,286047002.6,N
1578740975.2,286047002.8,N
1578740995.0,286047002.5,N
1578740995.9,286047002.5,N
1578741015.8,286046999.3,N
1578741035.6,286046997.0,N
1578741055.5,286046998.6,N
1578741075.3,286046996.9,N
1578741095.1,286047000.6,N
1578741115.9,286046998.2,N
1578741135.7,286047001.1,N
1578741155.5,286046998.5,N
1578741175.4,286046999.3,N
1578741195.2,286046997.8,N
1578741215.0,286046999.6,N
1578741215.9,286046999.6,N
1578741235.8,286046995.0,N
1578741255.6,286046999.5,N
1578741275.5,286046997.3,N
1578741295.3,286046994.9,N
1578741315.1,286046996.4,N
1578741335.9,286046991.7,Y
1578741355.7,286046991.9,P
1578741375.5,286046992.3,N
1578741395.4,286046990.1,N
1578741415.2,286046990.8,N
1578741435.1,286046990.9,N
1578741436.0,286046990.9,N
1578741455.8,286046992.2,N
1578741475.6,286046993.0,N
1578741495.5,286046991.7,Y
1578741515.3,286047002.3,P
1578741535.1,286047002.5,N
1578741555.9,286046999.9,N
1578741575.7,286046999.8,N
1578741595.6,286047000.3,N
1578741615.4,286047000.7,N
1578741635.2,286047002.6,N
1578741655.1,286047001.6,N
1578741656.0,286047001.6,N
1578741675.8,286047001.6,N
1578741695.6,286047003.6,N
1578741715.5,286047001.9,N
1578741735.3,286047004.1,N
1578741755.2,286047003.0,N
1578741775.9,286047003.9,N
1578741795.7,286047003.7,N
1578741815.6,286047002.5,N
1578741835.4,286047001.9,N
1578741855.2,286047005.9,N
1578741875.1,286047003.8,N
1578741906.0,286047005.1,E
1578741915.0,286047004.4,N
1578741915.9,286047004.4,P
1578741935.8,286047000.5,P
1578741955.6,286047000.8,N
1578741975.4,286047002.1,N
1578741995.3,286047004.4,N
1578742015.1,286047003.2,N
1578742035.9,286047003.5,N
1578742055.7,286047002.0,N
1578742075.5,286047002.8,N
1578742095.4,286047002.4,N
1578742115.2,286047000.2,N
1578742135.0,286047000.6,N
1578742135.9,286047000.6,N
1578742155.8,286046999.8,N
1578742175.6,286047002.7,N
1578742195.5,286047000.8,N
1578742215.3,286047000.5,N
1578742235.1,286047002.8,N
1578742255.9,286046999.9,N
1578742275.7,286047000.9,N
1578742295.5,286047001.2,N
1578742315.4,286046999.9,N
1578742335.2,286047000.0,N
1578742355.0,286047000.1,N
1578742356.0,286047000.1,N
1578742375.8,286047001.2,N
1578742395.6,286046998.3,N
1578742415.5,286046999.2,N
1578742435.3,286046998.5,N
1578742455.1,286046998.6,N
1578742475.9,286047000.8,N
1578742495.7,286047000.9,N
1578742515.6,286047000.9,N
1578742535.4,286047000.4,N
1578742555.2,286047002.4,N
1578742575.1,286047000.7,N
1578742576.0,286047000.7,N
1578742595.8,286047001.4,N
1578742615.6,286047004.0,Y
1578742635.5,286047001.5,P
1578742655.3,286047001.8,P
1578742675.2,286047001.9,P
1578742695.9,286047000.5,N
1578742715.7,286047000.0,N
1578742735.6,286047000.7,N
1578742755.4,286046998.3,N
1578742775.2,286047000.9,N
1578742795.1,286047000.9,N
1578742796.0,286047000.9,N
1578742815.8,286046999.8,N
1578742835.7,286047002.8,N
1578742855.5,286046999.7,N
1578742875.3,286047001.9,N
1578742895.2,286047002.3,N
1578742915.0,286047002.8,N
1578742915.9,286047002.8,N
1578742935.7,286047002.3,N
1578742955.6,286046999.8,N
1578742975.4,286047002.2,N
1578742995.3,286047002.6,N
1578743015.1,286047002.6,N
1578743016.0,286047002.6,N
1578743035.8,286047000.3,N
1578743055.7,286047000.4,N
1578743075.5,286047002.2,N
1578743095.4,286046999.8,N
1578743115.2,286047001.1,N
1578743135.0,286047000.8,N
1578743135.9,286047000.8,N
1578743155.8,286047000.6,N
1578743175.6,286046999.3,N
1578743195.4,286046998.6,N
1578743215.3,286046999.7,N
1578743235.1,286047002.7,N
1578743255.9,286047002.2,N
1578743275.7,286047001.8,N
1578743295.5,286047003.2,N
1578743315.4,286047004.3,Y
1578743335.2,286047002.4,P
1578743355.0,286047002.4,P
1578743355.9,286047002.4,P
1578743375.8,286047001.5,Y
1578743395.6,286046998.7,P
1578743415.5,286046999.1,N
1578743435.3,286046999.3,N
1578743455.1,286047000.8,N
1578743475.9,286046997.4,N
1578743495.7,286046995.1,Y
1578743515.6,286046996.7,P
1578743535.4,286046995.3,P
1578743555.2,286046996.0,N
1578743575.1,286046994.4,Y
1578743576.0,286046994.4,P
1578743595.8,286046995.3,P
1578743615.6,286047002.8,N
1578743635.5,286047000.9,N
1578743655.3,286047001.1,N
1578743675.2,286046999.4,N
1578743695.9,286046999.2,N
1578743715.7,286046997.2,N
1578743735.6,286046997.3,N
1578743755.4,286046998.8,N
1578743775.2,286046996.8,N
1578743795.1,286046995.1,N
1578743796.0,286046995.1,N
1578743815.8,286046993.7,N
1578743835.7,286046993.8,N
1578743855.5,286046994.0,N
1578743875.3,286046995.6,N
1578743895.2,286046997.6,N
1578743915.9,286047001.1,N
1578743935.7,286046999.0,N
1578743955.6,286046997.8,N
1578743975.4,286046997.8,N
1578743995.2,286046996.2,N
